Location: Biltmore Gardens
(41.6070°N, 83.4666°W)
Time: 14:42:44
(UTC+00:00)

ADEOS II - Pass Details

Date: 14 July 2020
Orbit: 799 x 801 km, 98.5° (Epoch: 12 August)

Event Time Altitude Azimuth Distance (km) Brightness Sun altitude
Rises 06:23:20 0° 36° (NE) 3,316 6.3 -26.0°
Reaches altitude 10° 06:27:38 10° 70° (ENE) 2,378 4.9 -25.8°
Maximum altitude 06:29:13 11° 88° (E) 2,285 4.6 -25.8°
Drops below altitude 10° 06:30:48 10° 106° (ESE) 2,373 4.5 -25.7°
Enters shadow 06:31:25 - 112° (ESE) 2,453 4.5 -25.7°
